Погода Корнесты

Погода Корнесты : погода сейчас, прогноз погоды и архив. Всё, что Вы хотите узнать о погоде Корнесты!

Поиск расширенной информации на нашем сайте:

Другие новости

Новости СМИ2

Главная страница сайта

Новости сайта

03.07.2017

Напоминаем, что на нашем специализированном сайте Метеоцентр.Азия вы можете получить высокодетализированные автоматические прогнозы погоды по пунктам России, СНГ и мира в авиационном формате (включающие направление и скорость ветра, видимость, явления погоды, количество и форму облачности, нижнюю и верхнюю границу облачности).

Рекомендуем: Натуральная косметика Пулана по низким ценам в Украине!

Погода Корнесты - сегодня

Время (UTC), дата Ветер
(°,м/с) 
Видим.   Явления Облачность Т
(°С)
Тd
(°С)
f(%) Тe
(°С)
Pmin
(гПа)
dP
(гПа)
Po
(мм)
O2
(г/м3)
Тmin Tmax R s Состояние
почвы
15 13.01.18 080 (В) 10 км  в посл. час снег  9/9 600 м 
[Sc]
-2.7 -5.3 82 -5  1037.9  0.4  756  308           
18 13.01.18 080 (В) 4000 м  ливневой снег  10/10 300 м кучево-дожд. 
[Cb cap]
-3.6 -3.7 99 -5  1038.3  0.3  756  309    -1.6  0.7     
21 13.01.18 070 (В) 10 км    10/10 600 м кучево-дожд. 
[Cb calv]
-4.4 -7.2 81 -6  1038.3  -0.1  756  310           
00 14.01.18 080 (В) 2000 м  ливневой снег  10/10 600 м кучево-дожд. 
[Cb cap]
-6 -7.1 92 -7  1037.9  -0.6  756  312           
03 14.01.18 040 (СВ) 10 км  {ливн. осадки}  10/10 600 м 
[Sc]
-7.2 -8.6 90 -9  1037.7  -0.3  755  314           
06 14.01.18 060 (СВ) 10 км  {ливн. осадки}  8/5 600 м средняя 
[Sc|Ac trans]
-7.9 -10 85 -8  1037.9  0.1  755  314  -8.1    0.4     
09 14.01.18 070 (В) 10 км    5/0 средняя 
[Ac trans]
-6 -11.1 67 -6  1037.8  0.1  756  312           
12 14.01.18 060 (СВ) 10 км    9/8 600 м средняя 
[Sc|Ac trans]
-5.7 -11 66 -5  1036.4  -1.3  755  312           
15 14.01.18 040 (СВ) 2000 м  слаб. ливневой снег  10/10 600 м кучево-дожд. 
[Cb cap]
-6.9 -8.4 89 -7  1036.6  755  313           
18 14.01.18 070 (В) 10 км  слаб. ливневой снег  10/10 600 м кучево-дожд. 
[Cb cap]
-7.6 -10.4 80 -7  1037.3  0.6  755  314    -5  0.2     
21 14.01.18 070 (В) 10 км  {ливн. осадки}  ясно 
-9 -10.9 86 -9  1037.7  0.3  755  316           
00 15.01.18 060 (СВ) 10 км  {ливн. осадки}  10/10 600 м кучево-дожд. 
[Cb cap]
-9.7 -10.8 92 -10  1037  -0.8  755  316           
03 15.01.18 030 (СВ) 10 км  слаб. ливневой снег  10/10 600 м кучево-дожд. 
[Cb cap]
-9.4 -10.1 95 -9  1036  -0.9  754  316           
06 15.01.18 тихо ()   10 км  {ливн. осадки, снег}  8/3 600 м средняя 
[Sc|As trans]
-10.9 -11.2 98 -11  1035.8  -0.4  754  317  -1.1    0.0     
09 15.01.18 тихо ()   4000 м  в посл. час ливневой снег  9/6 600 м средняя 
[Sc|As trans]
-8.3 -9.9 88 -8  1035.7  0.2  754  314           
12 15.01.18 020 (С) 10 км  {ливн. осадки}  8/8 600 м кучево-дожд. 
[Cb calv]
-6.8 -9.8 79 -6  1033  -2.4  752  312           
15 15.01.18 тихо ()   10 км    3/3 600 м 
[Sc]
-8.4 -10.5 85 -8  1031.9  -1.3  751  313           
18 15.01.18 тихо ()   10 км    ясно 
-10 -10.9 93 -10  1031.6  -0.5  751  315    -6.6  0.0     
21 15.01.18 110 (В) 10 км    ясно 
-10.9 -11.4 96 -11  1029.9  -1.7  749  316           
00 16.01.18 100 (В) 10 км    4/0 средняя 
[Ac trans]
-11 -11.4 97 -11  1027.6  -2.3  748  315           
03 16.01.18 110 (В) 10 км  гроза, пыльная буря  10/10 600 м 
[Sc]
-9.9 -10.4 96 -10  1024.5  -2.8  746  313           
06 16.01.18 120 (ЮВ) 10 км    10/10 420 м 
[Sc]
-9.6 -10.2 95 -9  1022.3  -2.1  744  312  -12.1      равномерный
сухой снег
100% 
09 16.01.18 120 (ЮВ) 10 км    3/3 600 м 
[Sc]
-6.8 -9.2 83 -6  1019.9  -2.1  742  308           
12 16.01.18 130 (ЮВ) 10 км    10/10 600 м 
[Sc]
-5.9 -7.4 89 -6  1015.5  -4.1  739  305           
15 16.01.18 120 (ЮВ) 10 км    9/8 600 м верхняя 
[Sc|Ci fib]
-5.5 -5.8 98 -9  1012.4  -3  737  304           
Время (UTC), дата Ветер
(°,м/с) 
Видим.   Явления Облачность Т
(°С)
Тd
(°С)
f(%) Тe
(°С)
Pmin
(гПа)
dP
(гПа)
Po
(мм)
O2
(г/м3)
Тmin Tmax R s Состояние
почвы

Для получения пояснительной информации подведите курсор к названию столбца.

ПОГОДА Корнесты - архив

Всё, что Вы хотите узнать о погоде Корнесты - удобно и подробно!

Выберите нужную дату (начиная с 1 января 2015* года) и нажмите кнопку "Найти".
Будут отображены архивные сводки погоды по пункту Корнесты, начиная с указанной даты.


Отображать данные в формате CSV (для использования в таблицах Excel)


Внимание! Наш архив погоды предназначен исключительно для личного некоммерческого использования в познавательных целях. Если Вам необходимы официальные справки о состоянии погоды (для производственных, юридических, коммерческих и т.п. целей), обращайтесь в органы Росгидромета.

*Примечание: данная дата относится к архиву по метеостанциям СССР (Россия, СНГ, Балтия).
Архив по метеостанциям Зарубежной Европы и Азии (кроме Китая) хранится 10 дней, по другим регионам земного шара (Китай, Африка, Америка, Австралия, Океания) - 1 день.

Корнесты - район местоположения метеостанции


Название, широта, долгота, высота метеостанции:
Корнесты 47.3°ш. 28.1°д. 232 м над ур. моря [Молдавия]

Дополнительная информация

В oтличие oт бoльшинства пoгoдных сайтoв мы публикуем пoдрoбную метеoинфoрмацию в детальнoм прoфессиoнальнoм фoрмате.

Характеристики температуры и влажнoсти вoздуха измеряются на высoте 2 м в тени вдали oт зданий и деревьев.
Скoрoсть ветра измеряется на высoте 10 м (на урoвне рoста челoвека скoрoсть ветра ниже в 1.5-2 раза). Если метеoстанция нахoдится в гoрoде или в лесу, тo скoрoсть ветра занижена на 2-4 м/с пo сравнению с oткрытым местoм. Скoрoсть ветра над акватoриями крупных рек и oзёр, а также на вершинах хoлмoв на 2-5 м/с выше, чем в oбычных услoвиях.
Атмoсфернoе давление в разных тoчках местнoсти мoжет значительнo oтличаться oт давления на метеoстанции, в зависимoсти oт услoвий рельефа (при пoдъёме на 10 м давление пoнижается примернo на 1 мм рт.ст.).